Weather History for Alexandria, Egypt

Change the Weather History Date:

Sunday, March 24, 2013

  Actual Average Record
Temperature  
Mean Temperature 60 °F -  
Max Temperature 68 °F 71 °F 80 °F (2002)
Min Temperature 51 °F 55 °F 44 °F (1999)
Degree Days  
Heating Degree Days 6    
Growing Degree Days 10 (Base 50)    
Moisture  
Dew Point 48 °F    
Average Humidity 62    
Maximum Humidity 94    
Minimum Humidity 40    
Precipitation  
Precipitation 0.00 in 0.01 in - ()
Sea Level Pressure  
Sea Level Pressure 30.06 in    
Wind  
Wind Speed 6 mph ()    
Max Wind Speed 13 mph    
Max Gust Speed -    
Visibility 6.1 miles    
Events      
Averages and records for this station are not official NWS values.
T = Trace of Precipitation, MM = Missing Value Source: Averaged Metar Reports

Daily Weather History Graph

Daily Weather History Graph

Search for Another Location

Airport:

Trip Planner

Search our weather history database for the weather conditions in past years. The results will help you decide how hot, cold, wet, or windy it might be!

Date:

Astronomy

Mar. 24, 2013 Rise Set
Actual Time 5:59 AM EET 6:14 PM EET
Civil Twilight 5:34 AM EET 6:38 PM EET
Nautical Twilight 5:06 AM EET 7:06 PM EET
Astronomical Twilight 4:38 AM EET 7:35 PM EET
Moon 3:30 PM EET (3/24) 3:47 AM EET (3/24)
Length of Visible Light 13h 03m
Length of Day
12h 15m
Waxing Gibbous, 90% of the Moon is Illuminated
Mar 24
Waxing Gibbous
Mar 27
Full
Apr 3
Last Quarter
Apr 10
New
Apr 18
First Quarter

Hourly Weather History & Observations

Time (EET) Temp. Dew Point Humidity Pressure Visibility Wind Dir Wind Speed Gust Speed Precip Events Conditions
12:00 AM 59.0 °F 48.2 °F 67% 30.04 in 6.2 mi North 6.9 mph - N/A   Scattered Clouds
1:00 AM 59.0 °F 46.4 °F 63% 30.04 in 6.2 mi North 5.8 mph - N/A   Partly Cloudy
2:00 AM 58 °F 46 °F 54% 30.03 in 6 mi North 13.4 mph - -  
2:00 AM 57.2 °F 46.4 °F 67% 30.04 in - North 6.9 mph - N/A   Clear
3:00 AM 59.0 °F 46.4 °F 63% 30.01 in 6.2 mi North 6.9 mph - N/A   Partly Cloudy
4:00 AM 55.4 °F 50.0 °F 82% 30.01 in 6.2 mi North 4.6 mph - N/A   Partly Cloudy
5:00 AM 53.6 °F 46.4 °F 77% 30.04 in - North 4.6 mph - N/A   Clear
6:00 AM 51.8 °F 50.0 °F 94% 30.04 in - SSE 4.6 mph - N/A   Clear
7:00 AM 51.8 °F 50.0 °F 94% 30.04 in - Calm Calm - N/A   Clear
8:00 AM 62 °F 49 °F 51% 30.08 in 6 mi ESE 4.6 mph - -  
8:00 AM 60.8 °F 48.2 °F 63% 30.06 in - ESE 4.6 mph - N/A   Clear
9:00 AM 64.4 °F 46.4 °F 52% 30.09 in - NE 6.9 mph - N/A   Clear
10:00 AM 66.2 °F 48.2 °F 52% 30.06 in - ENE 6.9 mph - N/A   Clear
11:00 AM 66.2 °F 48.2 °F 52% 30.06 in - NNE 8.1 mph - N/A   Clear
12:00 PM 68.0 °F 48.2 °F 49% 30.06 in - North 6.9 mph - N/A   Clear
1:00 PM 68.0 °F 48.2 °F 49% 30.06 in - North 11.5 mph - N/A   Clear
2:00 PM 67 °F 48 °F 40% 30.08 in 6 mi North 11.5 mph - -  
2:00 PM 68.0 °F 48.2 °F 49% 30.06 in - North 11.5 mph - N/A   Clear
3:00 PM 68.0 °F 48.2 °F 49% 30.06 in - North 9.2 mph - N/A   Clear
4:00 PM 66.2 °F 48.2 °F 52% 30.06 in - ENE 8.1 mph - N/A   Clear
5:00 PM 66.2 °F 48.2 °F 52% 30.06 in - NE 8.1 mph - N/A   Clear
6:00 PM 62.6 °F 48.2 °F 59% 30.06 in - NE 8.1 mph - N/A   Clear
7:00 PM 60.8 °F 48.2 °F 63% 30.09 in - ENE 4.6 mph - N/A   Clear
8:00 PM 58 °F 47 °F 57% 30.11 in 6 mi NE 6.9 mph - -  
8:00 PM 59.0 °F 46.4 °F 63% 30.09 in - NE 6.9 mph - N/A   Clear
9:00 PM 59.0 °F 50.0 °F 72% 30.06 in - ENE 5.8 mph - N/A   Clear
10:00 PM 57.2 °F 48.2 °F 72% 30.09 in - ENE 6.9 mph - N/A   Clear
11:00 PM 57.2 °F 46.4 °F 67% 30.09 in - East 8.1 mph - N/A   Clear